User: anonymous   Login
Location: Irma
(52.9170°N, 111.2330°W)
Time: 01:04:55
(UTC-07:00)
Language:

deb Chang Zheng 4 - Orbit

View from above orbital plane
View from above orbital plane
View from above satellite
View from above satellite

Ground track
Ground track

The orbit data is extracted from the following two-line orbital elements,

1 20847U 90081K   14352.70037223  .00020761  00000-0  34336-2 0  2662
2 20847 098.5762 165.2284 0020693 078.1724 054.4455 14.70211897271262
Epoch (UTC): 18 December 2014 16:48:32
Eccentricity: 0.0020693
inclination: 98.5762°
perigee height: 646 km
apogee height: 675 km
right ascension of ascending node: 165.2284°
argument of perigee: 78.1724°
revolutions per day: 14.70211897
mean anomaly at epoch: 54.4455°
orbit number at epoch: 27126

The dashed part of the orbit path shows where the satellite is in the earth's shadow,  

DLR